Simultaneous Nadir Overpasses (SNOs) Predictions

Prediction of SNOs between AURA and NPP Satellite Orbit:

Table of predicted SNOs for the next 14.0 days since TLE Epoch: 9/6/2019
Index Date (AURA) Time (AURA) Lat,Lon (AURA) SZA (AURA ) Date (NPP) Time (NPP) Lat,Lon (NPP) SZA (NPP ) Distance(km) Time Diff (sec)
1 09/09/2019 02:51:55 79.25, 32.09 87.30 09/09/2019 02:51:19 79.25, 32.13 87.32 0.74 36
2 09/09/2019 03:41:17 -79.45,-158.96 92.98 09/09/2019 03:41:59 -79.44,-159.06 92.99 2.23 42
3 09/11/2019 19:08:22 79.26, 148.08 88.23 09/11/2019 19:08:13 79.25, 147.94 88.26 3.06 9
4 09/11/2019 19:57:41 -79.58, -42.16 92.21 09/11/2019 19:58:49 -79.58, -42.14 92.27 0.32 68
5 09/14/2019 10:35:30 -79.05, 94.98 90.53 09/14/2019 10:34:30 -79.04, 94.88 90.46 2.25 60
6 09/14/2019 11:24:47 79.39, -95.20 89.01 09/14/2019 11:25:04 79.39, -95.19 89.00 0.13 17
7 09/17/2019 02:51:54 -79.22,-148.09 89.79 09/17/2019 02:51:20 -79.22,-148.04 89.78 1.11 34
8 09/17/2019 03:41:14 79.44, 21.00 89.92 09/17/2019 03:41:58 79.43, 20.87 89.91 2.72 44
9 09/19/2019 19:08:21 -79.26, -31.92 88.88 09/19/2019 19:08:14 -79.26, -31.99 88.86 1.47 7




NCC Satellite Simultaneous Nadir Overpasses (SNOs) Prediction Service
